TimeEET,TemperatureF,Dew PointF,Humidity,Sea Level PressureIn,VisibilityMPH,Wind Direction,Wind SpeedMPH,Gust SpeedMPH,PrecipitationIn,Events,Conditions,WindDirDegrees,DateUTC
12:20 AM,48.2,42.8,82,30.04,6.2,South,9.2,-,N/A,,Partly Cloudy,170,2013-02-20 22:20:00
12:50 AM,48.2,42.8,82,30.04,6.2,South,10.4,-,N/A,,Partly Cloudy,170,2013-02-20 22:50:00
1:20 AM,48.2,42.8,82,30.04,6.2,SSE,10.4,-,N/A,,Partly Cloudy,160,2013-02-20 23:20:00
1:50 AM,46.4,42.8,87,30.04,6.2,SSE,10.4,-,N/A,,Partly Cloudy,160,2013-02-20 23:50:00
2:00 AM,46,42,83,30.05,6,SSE,10.4,,,,Scattered Clouds,160,2013-02-21 00:00:00
2:20 AM,46.4,42.8,87,30.04,6.2,South,9.2,-,N/A,,Partly Cloudy,170,2013-02-21 00:20:00
2:50 AM,46.4,41.0,81,30.04,6.2,South,8.1,-,N/A,,Partly Cloudy,180,2013-02-21 00:50:00
3:50 AM,46.4,42.8,87,30.04,6.2,South,8.1,-,N/A,,Partly Cloudy,170,2013-02-21 01:50:00
4:50 AM,48.2,44.6,87,30.01,6.2,South,6.9,-,N/A,,Partly Cloudy,170,2013-02-21 02:50:00
5:50 AM,48.2,44.6,87,30.01,6.2,South,9.2,-,N/A,,Partly Cloudy,170,2013-02-21 03:50:00
6:20 AM,48.2,44.6,87,30.01,6.2,South,8.1,-,N/A,,Partly Cloudy,170,2013-02-21 04:20:00
6:50 AM,50.0,44.6,82,30.01,6.2,SSE,8.1,-,N/A,,Mostly Cloudy,160,2013-02-21 04:50:00
7:20 AM,50.0,44.6,82,30.01,6.2,South,8.1,-,N/A,,Mostly Cloudy,170,2013-02-21 05:20:00
7:50 AM,50.0,44.6,82,29.98,6.2,South,8.1,-,N/A,,Mostly Cloudy,170,2013-02-21 05:50:00
8:00 AM,50,44,73,29.99,9,South,8.1,,,,Scattered Clouds,170,2013-02-21 06:00:00
8:20 AM,51.8,42.8,71,29.98,6.2,South,8.1,-,N/A,,Mostly Cloudy,190,2013-02-21 06:20:00
8:50 AM,53.6,42.8,67,29.98,6.2,ESE,11.5,-,N/A,,Mostly Cloudy,120,2013-02-21 06:50:00
9:20 AM,53.6,42.8,67,29.98,6.2,SE,8.1,-,N/A,,Mostly Cloudy,130,2013-02-21 07:20:00
9:50 AM,53.6,46.4,77,29.98,6.2,SE,9.2,-,N/A,,Mostly Cloudy,140,2013-02-21 07:50:00
10:20 AM,53.6,46.4,77,29.98,6.2,South,11.5,-,N/A,,Mostly Cloudy,170,2013-02-21 08:20:00
10:50 AM,59.0,46.4,63,29.95,6.2,SSE,11.5,-,N/A,,Mostly Cloudy,160,2013-02-21 08:50:00
11:20 AM,59.0,46.4,63,29.95,6.2,South,16.1,27.6,N/A,,Mostly Cloudy,170,2013-02-21 09:20:00
11:50 AM,62.6,44.6,52,29.92,6.2,South,17.3,28.8,N/A,,Mostly Cloudy,170,2013-02-21 09:50:00
12:20 PM,62.6,44.6,52,29.92,6.2,ESE,13.8,-,N/A,,Mostly Cloudy,110,2013-02-21 10:20:00
12:50 PM,62.6,48.2,59,29.89,6.2,SE,16.1,-,N/A,,Overcast,140,2013-02-21 10:50:00
1:20 PM,62.6,48.2,59,29.89,6.2,South,21.9,33.4,N/A,,Overcast,170,2013-02-21 11:20:00
1:50 PM,62.6,50.0,63,29.86,6.2,South,23.0,34.5,N/A,,Overcast,180,2013-02-21 11:50:00
2:00 PM,62,50,55,29.86,9,South,23.0,,,,Overcast,180,2013-02-21 12:00:00
2:20 PM,62.6,50.0,63,29.86,6.2,South,21.9,33.4,N/A,,Overcast,170,2013-02-21 12:20:00
2:50 PM,60.8,48.2,63,29.80,6.2,South,25.3,-,N/A,,Overcast,170,2013-02-21 12:50:00
3:20 PM,60.8,48.2,63,29.80,6.2,South,24.2,-,N/A,,Overcast,170,2013-02-21 13:20:00
3:50 PM,60.8,50.0,68,29.80,6.2,South,15.0,-,N/A,,Overcast,170,2013-02-21 13:50:00
4:20 PM,60.8,48.2,63,29.80,6.2,SSW,10.4,-,N/A,,Overcast,200,2013-02-21 14:20:00
4:50 PM,59.0,48.2,67,29.80,6.2,ESE,8.1,-,N/A,,Overcast,120,2013-02-21 14:50:00
5:20 PM,59.0,48.2,67,29.80,6.2,SE,10.4,-,N/A,,Overcast,130,2013-02-21 15:20:00
5:50 PM,59.0,48.2,67,29.74,6.2,SE,4.6,-,N/A,,Overcast,140,2013-02-21 15:50:00
6:20 PM,59.0,48.2,67,29.74,6.2,SW,4.6,-,N/A,,Overcast,220,2013-02-21 16:20:00
6:50 PM,59.0,48.2,67,29.80,6.2,SW,8.1,-,N/A,,Overcast,220,2013-02-21 16:50:00
7:20 PM,59.0,48.2,67,29.80,6.2,WSW,8.1,-,N/A,,Overcast,240,2013-02-21 17:20:00
7:50 PM,59.0,50.0,72,29.74,6.2,SE,4.6,-,N/A,,Mostly Cloudy,140,2013-02-21 17:50:00
8:00 PM,59,50,64,29.77,6,SE,4.6,,,,Scattered Clouds,140,2013-02-21 18:00:00
8:20 PM,59.0,50.0,72,29.74,6.2,SSE,6.9,-,N/A,,Mostly Cloudy,150,2013-02-21 18:20:00
8:50 PM,57.2,46.4,67,29.77,6.2,WSW,11.5,-,N/A,,Mostly Cloudy,240,2013-02-21 18:50:00
9:20 PM,57.2,46.4,67,29.77,6.2,WSW,11.5,-,N/A,,Mostly Cloudy,240,2013-02-21 19:20:00
9:50 PM,57.2,46.4,67,29.77,6.2,SSE,5.8,-,N/A,,Mostly Cloudy,160,2013-02-21 19:50:00
10:20 PM,57.2,44.6,63,29.74,6.2,ESE,11.5,-,N/A,,Mostly Cloudy,120,2013-02-21 20:20:00
10:50 PM,60.8,48.2,63,29.74,6.2,SE,15.0,-,N/A,,Mostly Cloudy,130,2013-02-21 20:50:00
11:20 PM,60.8,48.2,63,29.74,6.2,South,19.6,-,N/A,,Mostly Cloudy,170,2013-02-21 21:20:00
11:50 PM,62.6,44.6,52,29.71,6.2,SE,16.1,-,N/A,,Mostly Cloudy,130,2013-02-21 21:50:00